TimeAKDT,TemperatureF,Dew PointF,Humidity,Sea Level PressureIn,VisibilityMPH,Wind Direction,Wind SpeedMPH,Gust SpeedMPH,PrecipitationIn,Events,Conditions,WindDirDegrees,DateUTC
12:53 AM,21.9,10.0,60,29.99,10.0,WNW,6.9,-,N/A,,Clear,300,2013-04-02 08:53:00
1:53 AM,19.9,10.0,65,30.02,10.0,NW,6.9,-,N/A,,Clear,310,2013-04-02 09:53:00
2:53 AM,16.0,9.0,74,30.04,10.0,WNW,3.5,-,N/A,,Clear,300,2013-04-02 10:53:00
3:53 AM,14.0,8.1,77,30.07,10.0,NW,6.9,-,N/A,,Clear,310,2013-04-02 11:53:00
4:53 AM,8.1,3.0,80,30.10,10.0,NW,6.9,-,N/A,,Clear,310,2013-04-02 12:53:00
5:53 AM,10.0,5.0,80,30.12,10.0,NW,6.9,-,N/A,,Partly Cloudy,310,2013-04-02 13:53:00
6:53 AM,3.9,1.0,88,30.14,10.0,NW,5.8,-,N/A,,Partly Cloudy,320,2013-04-02 14:53:00
7:53 AM,7.0,1.9,80,30.16,10.0,NNW,4.6,-,N/A,,Partly Cloudy,330,2013-04-02 15:53:00
8:53 AM,15.1,6.1,68,30.16,10.0,Calm,Calm,-,N/A,,Partly Cloudy,0,2013-04-02 16:53:00
9:53 AM,17.1,7.0,65,30.17,10.0,Calm,Calm,-,N/A,,Partly Cloudy,0,2013-04-02 17:53:00
10:53 AM,21.9,8.1,55,30.17,10.0,Calm,Calm,-,N/A,,Partly Cloudy,0,2013-04-02 18:53:00
11:53 AM,26.1,10.9,53,30.17,10.0,SSE,4.6,-,N/A,,Partly Cloudy,160,2013-04-02 19:53:00
12:53 PM,30.0,10.9,45,30.17,10.0,Calm,Calm,-,N/A,,Partly Cloudy,0,2013-04-02 20:53:00
1:53 PM,32.0,12.0,44,30.16,10.0,Calm,Calm,-,N/A,,Partly Cloudy,0,2013-04-02 21:53:00
2:53 PM,35.1,12.9,40,30.16,10.0,South,6.9,-,N/A,,Partly Cloudy,170,2013-04-02 22:53:00
3:53 PM,36.0,14.0,41,30.16,10.0,South,5.8,-,N/A,,Partly Cloudy,180,2013-04-02 23:53:00
4:53 PM,37.9,10.9,33,30.16,10.0,Variable,3.5,-,N/A,,Partly Cloudy,0,2013-04-03 00:53:00
5:53 PM,36.0,12.9,39,30.15,10.0,SSW,5.8,-,N/A,,Scattered Clouds,200,2013-04-03 01:53:00
6:53 PM,35.1,12.9,40,30.16,10.0,South,5.8,-,N/A,,Mostly Cloudy,180,2013-04-03 02:53:00
7:53 PM,34.0,14.0,44,30.16,10.0,SSE,8.1,-,N/A,,Mostly Cloudy,150,2013-04-03 03:53:00
8:53 PM,30.0,14.0,51,30.17,10.0,South,5.8,-,N/A,,Mostly Cloudy,170,2013-04-03 04:53:00
9:27 PM,30.0,14.0,51,30.07,10.0,SE,6.9,-,N/A,,Mostly Cloudy,140,2013-04-03 05:27:00
9:53 PM,28.0,14.0,56,30.19,10.0,SSE,5.8,-,N/A,,Scattered Clouds,150,2013-04-03 05:53:00
10:53 PM,27.0,14.0,58,30.19,10.0,SSE,5.8,-,N/A,,Clear,150,2013-04-03 06:53:00
11:53 PM,24.1,14.0,65,30.21,10.0,South,4.6,-,N/A,,Clear,180,2013-04-03 07:53:00